DW6125 Weather Reports


Display with metric or nautical units.
time (UTC)temp
F
wind
direction
speed
MPH
gust
MPH
rain 1hr
in
rain 24hr
in
rain mn
in
humidity
%
barometer
mb
20260902203026 96 275 2.0 4.0 0.00 0.00 0.00 66 1015.6
20260902202025 96 269 3.0 6.0 0.00 0.00 0.00 65 1015.7
20260902201026 96 209 0.0 5.0 0.00 0.00 0.00 63 1015.6
20260902200026 95 156 2.0 4.0 0.00 0.00 0.00 66 1015.7
20260902195025 94 265 1.0 3.0 0.00 0.00 0.00 67 1015.9
20260902193025 93 276 0.0 4.0 0.00 0.00 0.00 68 1016.0
20260902192025 94 274 1.0 4.0 0.00 0.00 0.00 67 1016.1
20260902191025 93 265 1.0 8.0 0.00 0.00 0.00 68 1016.1
20260902190025 93 276 3.0 6.0 0.00 0.00 0.00 69 1016.1
20260902184025 93 273 2.0 7.0 0.00 0.00 0.00 69 1016.3
20260902183025 92 253 1.0 4.0 0.00 0.00 0.00 69 1016.2
20260902181025 91 273 1.0 9.0 0.00 0.00 0.00 71 1016.3
20260902180025 91 277 4.0 10.0 0.00 0.00 0.00 71 1016.3
20260902175025 91 283 9.0 12.0 0.00 0.00 0.00 68 1016.4
20260902174025 91 274 4.0 8.0 0.00 0.00 0.00 68 1016.5
20260902173025 91 280 2.0 9.0 0.00 0.00 0.00 68 1016.5
20260902171025 91 277 6.0 9.0 0.00 0.00 0.00 71 1016.7
20260902170025 91 273 2.0 7.0 0.00 0.00 0.00 72 1016.8
20260902164026 90 277 2.0 7.0 0.00 0.00 0.00 73 1016.8
20260902163025 89 279 6.0 7.0 0.00 0.00 0.00 73 1017.0
20260902162025 89 271 0.0 9.0 0.00 0.00 0.00 73 1017.1
20260902161025 89 269 1.0 7.0 0.00 0.00 0.00 75 1017.1
20260902160025 88 270 6.0 10.0 0.00 0.00 0.00 75 1017.0
20260902155025 87 272 3.0 9.0 0.00 0.00 0.00 76 1017.0
20260902153025 86 279 6.0 10.0 0.00 0.00 0.00 78 1017.0
20260902150024 85 273 2.0 9.0 0.00 0.00 0.00 78 1017.1
20260902145028 84 280 2.0 9.0 0.00 0.00 0.00 79 1017.1
20260902143025 83 270 3.0 7.0 0.00 0.00 0.00 79 1017.0
20260902142025 83 274 3.0 4.0 0.00 0.00 0.00 81 1017.0
20260902140025 82 273 2.0 8.0 0.00 0.00 0.00 83 1017.1
20260902135025 81 271 2.0 4.0 0.00 0.00 0.00 84 1017.0
20260902134024 80 277 2.0 4.0 0.00 0.00 0.00 86 1017.1
20260902133025 79 273 2.0 4.0 0.00 0.00 0.00 87 1017.1
20260902132024 78 269 0.0 3.0 0.00 0.00 0.00 88 1017.2
20260902131024 77 271 1.0 4.0 0.00 0.00 0.00 89 1017.1
20260902130025 76 278 0.0 2.0 0.00 0.00 0.00 91 1017.1
20260902125024 75 253 0.0 2.0 0.00 0.00 0.00 92 1017.2
20260902124024 74 253 0.0 0.0 0.00 0.00 0.00 92 1017.2
20260902123024 73 253 0.0 1.0 0.00 0.00 0.00 93 1017.3
20260902122024 73 253 0.0 1.0 0.00 0.00 0.00 93 1017.3
20260902121024 72 130 0.0 0.0 0.00 0.00 0.00 93 1017.2
20260902120027 72 130 0.0 1.0 0.00 0.00 0.00 94 1017.2
20260902115024 72 130 0.0 0.0 0.00 0.00 0.00 94 1017.0
20260902114024 72 130 0.0 1.0 0.00 0.00 0.00 94 1017.0
20260902113024 72 207 0.0 0.0 0.00 0.00 0.00 94 1017.0
20260902112024 72 207 0.0 1.0 0.00 0.00 0.00 94 1017.0
20260902110024 72 202 0.0 2.0 0.00 0.00 0.00 94 1017.0
20260902105024 72 262 0.0 2.0 0.00 0.00 0.00 94 1017.1
20260902104024 71 263 0.0 0.0 0.00 0.00 0.00 94 1017.1
20260902102024 71 263 0.0 0.0 0.00 0.00 0.00 94 1017.0
20260902101024 72 263 0.0 0.0 0.00 0.00 0.00 93 1017.1
20260902100024 72 263 0.0 0.0 0.00 0.00 0.00 93 1017.0
20260902095024 72 263 0.0 0.0 0.00 0.00 0.00 92 1017.0
20260902094024 73 263 0.0 0.0 0.00 0.00 0.00 92 1016.8
20260902093024 73 263 0.0 1.0 0.00 0.00 0.00 91 1016.7
20260902092024 74 263 1.0 2.0 0.00 0.00 0.00 90 1016.5
20260902091024 74 263 0.0 1.0 0.00 0.00 0.00 90 1016.6
20260902090024 74 263 0.0 1.0 0.00 0.00 0.00 89 1016.6
20260902085024 74 263 0.0 2.0 0.00 0.00 0.00 89 1016.5
20260902084024 75 263 0.0 2.0 0.00 0.00 0.00 89 1016.7
20260902083024 75 263 0.0 0.0 0.00 0.00 0.00 88 1016.6
20260902082024 75 263 0.0 0.0 0.00 0.00 0.00 88 1016.5
20260902081024 75 263 0.0 0.0 0.00 0.00 0.00 88 1016.5
20260902080024 75 249 0.0 0.0 0.00 0.00 0.00 88 1016.5
20260902074023 75 249 0.0 0.0 0.00 0.00 0.00 88 1016.6
20260902073024 75 246 0.0 0.0 0.00 0.00 0.00 88 1016.7
20260902072023 75 246 0.0 0.0 0.00 0.00 0.00 88 1016.7
20260902071024 75 246 0.0 1.0 0.00 0.00 0.00 88 1016.6
20260902070025 75 242 0.0 0.0 0.00 0.00 0.00 88 1016.6
20260902065023 75 242 0.0 1.0 0.00 0.00 0.00 88 1016.7
20260902064023 75 235 0.0 1.0 0.00 0.00 0.00 88 1016.7
20260902062023 75 219 0.0 1.0 0.00 0.00 0.00 90 1016.6
20260902061024 75 219 0.0 0.0 0.00 0.00 0.00 90 1016.6
20260902060024 76 219 0.0 0.0 0.00 0.00 0.00 90 1016.7
20260902054023 76 219 0.0 0.0 0.00 0.00 0.00 89 1016.6
20260902053023 77 219 0.0 0.0 0.00 0.00 0.00 89 1016.6
20260902052023 77 219 0.0 1.0 0.00 0.00 0.00 88 1016.6
20260902051023 78 217 0.0 1.0 0.00 0.00 0.00 88 1016.6
20260902050023 78 214 0.0 3.0 0.00 0.00 0.00 87 1016.6
20260902045023 79 263 1.0 1.0 0.00 0.00 0.00 87 1016.7
20260902044023 79 263 1.0 2.0 0.00 0.00 0.00 87 1016.6
20260902043023 79 263 0.0 1.0 0.00 0.00 0.00 86 1016.4
20260902040023 81 150 0.0 1.0 0.00 0.00 0.00 82 1016.4
20260902035023 81 163 0.0 2.0 0.00 0.00 0.00 82 1016.4
20260902034023 81 146 0.0 0.0 0.00 0.00 0.00 83 1016.4
20260902033023 81 146 0.0 0.0 0.00 0.00 0.00 84 1016.5
20260902032023 81 146 0.0 0.0 0.00 0.00 0.00 85 1016.5
20260902031023 82 146 0.0 0.0 0.00 0.00 0.00 85 1016.5
20260902030023 82 146 0.0 0.0 0.00 0.00 0.00 85 1016.5
20260902025023 82 146 0.0 0.0 0.00 0.00 0.00 85 1016.5
20260902024023 82 146 0.0 0.0 0.00 0.00 0.00 86 1016.4
20260902022022 83 146 0.0 0.0 0.00 0.00 0.00 86 1016.4
20260902021023 83 146 0.0 1.0 0.00 0.00 0.00 86 1016.3
20260902020023 83 146 0.0 0.0 0.00 0.00 0.00 85 1016.3
20260902015023 83 146 0.0 0.0 0.00 0.00 0.00 85 1016.2
20260902014022 84 146 0.0 0.0 0.00 0.00 0.00 84 1016.3
20260902013023 84 146 0.0 0.0 0.00 0.00 0.00 83 1015.9
20260902012023 85 146 0.0 0.0 0.00 0.00 0.00 81 1015.9
20260902011022 86 146 0.0 0.0 0.00 0.00 0.00 79 1015.9
20260902002022 89 146 0.0 2.0 0.00 0.00 0.00 77 1015.7
20260902000022 92 146 0.0 0.0 0.00 0.00 0.00 71 1015.8
20260901235022 94 146 0.0 1.0 0.00 0.00 0.00 67 1015.9
20260901234022 95 146 0.0 3.0 0.00 0.00 0.00 65 1015.9
20260901233022 95 178 0.0 1.0 0.00 0.00 0.00 67 1015.8
20260901232022 95 178 0.0 2.0 0.00 0.00 0.00 66 1015.9
20260901230022 97 165 0.0 2.0 0.00 0.00 0.00 64 1016.0
20260901225022 96 147 0.0 2.0 0.00 0.00 0.00 64 1016.1
20260901223022 97 244 0.0 1.0 0.00 0.00 0.00 65 1016.1
20260901222022 96 163 0.0 4.0 0.00 0.00 0.00 65 1016.0
20260901221022 96 230 0.0 3.0 0.00 0.00 0.00 63 1016.1
20260901220022 96 270 1.0 1.0 0.00 0.00 0.00 64 1016.0
20260901214022 95 270 1.0 2.0 0.00 0.00 0.00 65 1015.8
20260901213022 95 270 0.0 3.0 0.00 0.00 0.00 66 1015.8
20260901212022 94 276 0.0 4.0 0.00 0.00 0.00 65 1015.8
20260901211022 95 281 1.0 3.0 0.00 0.00 0.00 64 1015.8
20260901210022 95 268 3.0 3.0 0.00 0.00 0.00 65 1016.0
20260901204022 95 267 2.0 6.0 0.00 0.00 0.00 65 1016.1